TAM3050 SBSP-SBCF

Flight info

Callsign TAM3050
Flight time 0h 52m
Altitude 33000
Route NUXEL UZ23 KIBAP
Aircraft A320/M-SDE3FGHIRWY/LB1

Departure

Time 2026-05-08 11:56
Airport Congonhas–Deputado Freitas Nobre Airport (SBSP)

Arrival

Time 2026-05-08 12:49
Airport Tancredo Neves International Airport (SBCF)
Time Latitude Longitude Altitude Speed Heading
2026-05-08 11:29 -23.62600 -46.65906 2601 ft 0 kts 237°
2026-05-08 11:48 -23.62598 -46.65902 2601 ft 3 kts 237°
2026-05-08 11:49 -23.62583 -46.65879 2601 ft 4 kts 220°
2026-05-08 11:49 -23.62566 -46.65872 2601 ft 2 kts 147°
2026-05-08 11:49 -23.62552 -46.65882 2601 ft 0 kts 147°
2026-05-08 11:52 -23.62572 -46.65866 2601 ft 7 kts 139°
2026-05-08 11:52 -23.62614 -46.65801 2602 ft 14 kts 124°
2026-05-08 11:52 -23.62709 -46.65725 2602 ft 21 kts 148°
2026-05-08 11:52 -23.62827 -46.65644 2603 ft 19 kts 148°
2026-05-08 11:53 -23.62926 -46.65576 2603 ft 16 kts 147°
2026-05-08 11:53 -23.63016 -46.65522 2603 ft 14 kts 169°
2026-05-08 11:53 -23.63104 -46.65488 2602 ft 13 kts 147°
2026-05-08 11:53 -23.63178 -46.65437 2602 ft 13 kts 147°
2026-05-08 11:54 -23.63271 -46.65373 2602 ft 18 kts 148°
2026-05-08 11:54 -23.63370 -46.65304 2602 ft 16 kts 148°
2026-05-08 11:54 -23.63463 -46.65241 2601 ft 15 kts 148°
2026-05-08 11:54 -23.63495 -46.65157 2599 ft 14 kts 49°
2026-05-08 11:55 -23.63423 -46.65121 2601 ft 9 kts 336°
2026-05-08 11:55 -23.63398 -46.65140 2603 ft 0 kts 328°
2026-05-08 11:55 -23.63314 -46.65196 2608 ft 46 kts 328°
2026-05-08 11:55 -23.62834 -46.65529 2608 ft 114 kts 327°
2026-05-08 11:56 -23.62007 -46.66098 2672 ft 160 kts 332°
2026-05-08 11:56 -23.61043 -46.66759 3317 ft 166 kts 332°
2026-05-08 11:56 -23.59965 -46.67316 3650 ft 183 kts 353°
2026-05-08 11:56 -23.58697 -46.66900 4053 ft 209 kts 36°
2026-05-08 11:57 -23.57971 -46.65453 4792 ft 237 kts 74°
2026-05-08 11:57 -23.58186 -46.63587 5343 ft 261 kts 101°
2026-05-08 11:57 -23.58921 -46.61765 5478 ft 266 kts 112°
2026-05-08 11:57 -23.59790 -46.59960 5513 ft 280 kts 112°
2026-05-08 11:58 -23.60713 -46.57965 5513 ft 303 kts 110°
2026-05-08 11:58 -23.61583 -46.55856 5497 ft 309 kts 117°
2026-05-08 11:58 -23.62934 -46.53983 5901 ft 319 kts 131°
2026-05-08 11:59 -23.66055 -46.50551 7830 ft 320 kts 135°
2026-05-08 11:59 -23.67658 -46.48863 8746 ft 321 kts 134°
2026-05-08 11:59 -23.68993 -46.46930 9620 ft 320 kts 113°
2026-05-08 11:59 -23.69617 -46.44632 10388 ft 316 kts 91°
2026-05-08 12:00 -23.69461 -46.42212 10709 ft 327 kts 68°
2026-05-08 12:00 -23.68430 -46.40011 11224 ft 327 kts 47°
2026-05-08 12:00 -23.66755 -46.38372 11903 ft 323 kts 27°
2026-05-08 12:00 -23.64709 -46.37378 12614 ft 323 kts 18°
2026-05-08 12:01 -23.62595 -46.36502 13306 ft 327 kts 18°
2026-05-08 12:01 -23.60462 -46.35633 14062 ft 328 kts 18°
2026-05-08 12:01 -23.58320 -46.34766 14755 ft 330 kts 18°
2026-05-08 12:01 -23.56151 -46.33890 15362 ft 335 kts 18°
2026-05-08 12:02 -23.53953 -46.32999 15953 ft 339 kts 18°
2026-05-08 12:02 -23.51732 -46.32095 16609 ft 342 kts 18°
2026-05-08 12:02 -23.49491 -46.31181 17187 ft 347 kts 18°
2026-05-08 12:02 -23.47215 -46.30251 17764 ft 351 kts 17°
2026-05-08 12:03 -23.44921 -46.29313 18387 ft 354 kts 17°
2026-05-08 12:03 -23.42590 -46.28360 18809 ft 361 kts 18°
2026-05-08 12:03 -23.40228 -46.27396 19276 ft 365 kts 18°
2026-05-08 12:03 -23.37862 -46.26434 19773 ft 369 kts 17°
2026-05-08 12:04 -23.35445 -46.25451 20303 ft 372 kts 17°
2026-05-08 12:04 -23.33007 -46.24460 20814 ft 376 kts 17°
2026-05-08 12:04 -23.30548 -46.23459 21334 ft 379 kts 17°
2026-05-08 12:04 -23.28067 -46.22446 21855 ft 383 kts 17°
2026-05-08 12:05 -23.25562 -46.21426 22353 ft 386 kts 17°
2026-05-08 12:05 -23.23030 -46.20398 22873 ft 390 kts 17°
2026-05-08 12:05 -23.20482 -46.19363 23380 ft 394 kts 17°
2026-05-08 12:05 -23.17904 -46.18317 23850 ft 397 kts 16°
2026-05-08 12:06 -23.15305 -46.17265 24266 ft 401 kts 17°
2026-05-08 12:06 -23.12682 -46.16204 24667 ft 404 kts 17°
2026-05-08 12:06 -23.10032 -46.15131 25055 ft 408 kts 16°
2026-05-08 12:06 -23.07361 -46.14049 25454 ft 411 kts 16°
2026-05-08 12:07 -23.04669 -46.12959 25851 ft 414 kts 16°
2026-05-08 12:07 -23.01956 -46.11859 26228 ft 417 kts 16°
2026-05-08 12:07 -22.99228 -46.10752 26621 ft 420 kts 16°
2026-05-08 12:07 -22.96480 -46.09638 27012 ft 423 kts 16°
2026-05-08 12:08 -22.93706 -46.08516 27395 ft 426 kts 16°
2026-05-08 12:08 -22.90918 -46.07387 27760 ft 430 kts 16°
2026-05-08 12:08 -22.88111 -46.06250 28141 ft 432 kts 16°
2026-05-08 12:08 -22.85286 -46.05108 28526 ft 434 kts 15°
2026-05-08 12:09 -22.82444 -46.03963 28893 ft 437 kts 15°
2026-05-08 12:09 -22.79586 -46.02814 29260 ft 440 kts 15°
2026-05-08 12:09 -22.76704 -46.01652 29622 ft 443 kts 15°
2026-05-08 12:09 -22.73806 -46.00483 29958 ft 446 kts 15°
2026-05-08 12:10 -22.70888 -45.99307 30263 ft 449 kts 15°
2026-05-08 12:10 -22.68945 -45.98524 30455 ft 450 kts 15°
2026-05-08 12:10 -22.66005 -45.97338 30751 ft 452 kts 15°
2026-05-08 12:10 -22.63050 -45.96145 31011 ft 455 kts 15°
2026-05-08 12:11 -22.60077 -45.94946 31263 ft 457 kts 16°
2026-05-08 12:11 -22.57091 -45.93743 31529 ft 459 kts 16°
2026-05-08 12:11 -22.54087 -45.92537 31872 ft 459 kts 16°
2026-05-08 12:11 -22.50136 -45.90947 32396 ft 457 kts 16°
2026-05-08 12:12 -22.48121 -45.90134 32662 ft 457 kts 16°
2026-05-08 12:12 -22.45143 -45.88934 32994 ft 458 kts 16°
2026-05-08 12:12 -22.42154 -45.87733 33127 ft 458 kts 16°
2026-05-08 12:12 -22.39207 -45.86547 33154 ft 445 kts 16°
2026-05-08 12:13 -22.33470 -45.84246 33155 ft 437 kts 16°
2026-05-08 12:13 -22.27887 -45.81645 33154 ft 442 kts 28°
2026-05-08 12:14 -22.23014 -45.77615 33155 ft 446 kts 35°
2026-05-08 12:14 -22.18177 -45.73427 33158 ft 446 kts 35°
2026-05-08 12:15 -22.13338 -45.69252 33158 ft 445 kts 35°
2026-05-08 12:15 -22.08501 -45.65080 33154 ft 445 kts 35°
2026-05-08 12:16 -22.03662 -45.60907 33147 ft 445 kts 35°
2026-05-08 12:16 -21.98823 -45.56740 33143 ft 445 kts 35°
2026-05-08 12:17 -21.93977 -45.52571 33145 ft 446 kts 35°
2026-05-08 12:17 -21.89129 -45.48401 33146 ft 446 kts 35°
2026-05-08 12:18 -21.84270 -45.44232 33147 ft 447 kts 35°
2026-05-08 12:18 -21.79410 -45.40068 33148 ft 447 kts 35°
2026-05-08 12:19 -21.74549 -45.35901 33149 ft 447 kts 36°
2026-05-08 12:19 -21.69693 -45.31737 33142 ft 447 kts 36°
2026-05-08 12:20 -21.64839 -45.27573 33151 ft 446 kts 36°
2026-05-08 12:20 -21.59974 -45.23419 33152 ft 446 kts 36°
2026-05-08 12:21 -21.55112 -45.19267 33154 ft 446 kts 36°
2026-05-08 12:21 -21.50251 -45.15119 33154 ft 446 kts 36°
2026-05-08 12:22 -21.45391 -45.10976 33154 ft 446 kts 36°
2026-05-08 12:22 -21.40745 -45.07020 33155 ft 446 kts 36°
2026-05-08 12:23 -21.35882 -45.02888 33149 ft 446 kts 36°
2026-05-08 12:23 -21.31021 -44.98750 33150 ft 446 kts 36°
2026-05-08 12:24 -21.26152 -44.94615 33150 ft 446 kts 36°
2026-05-08 12:24 -21.21281 -44.90484 33150 ft 446 kts 36°
2026-05-08 12:25 -21.16414 -44.86354 33147 ft 446 kts 36°
2026-05-08 12:25 -21.11547 -44.82221 33151 ft 446 kts 36°
2026-05-08 12:26 -21.06679 -44.78090 33148 ft 446 kts 36°
2026-05-08 12:26 -21.01772 -44.74064 32727 ft 440 kts 33°
2026-05-08 12:27 -20.99282 -44.72166 32189 ft 438 kts 32°
2026-05-08 12:27 -20.96783 -44.70308 31667 ft 436 kts 32°
2026-05-08 12:27 -20.94296 -44.68464 31165 ft 434 kts 32°
2026-05-08 12:27 -20.91825 -44.66616 30653 ft 432 kts 32°
2026-05-08 12:28 -20.89372 -44.64762 30137 ft 431 kts 32°
2026-05-08 12:28 -20.86937 -44.62909 29619 ft 427 kts 33°
2026-05-08 12:28 -20.84531 -44.61070 29152 ft 423 kts 33°
2026-05-08 12:28 -20.82147 -44.59244 28683 ft 419 kts 33°
2026-05-08 12:29 -20.79708 -44.57587 28230 ft 413 kts 24°
2026-05-08 12:29 -20.77062 -44.56478 27769 ft 405 kts 12°
2026-05-08 12:29 -20.74341 -44.55734 27310 ft 402 kts 12°
2026-05-08 12:29 -20.71635 -44.55005 26838 ft 400 kts 12°
2026-05-08 12:30 -20.68945 -44.54280 26361 ft 398 kts 12°
2026-05-08 12:30 -20.66260 -44.53555 25873 ft 397 kts 12°
2026-05-08 12:30 -20.63587 -44.52832 25372 ft 396 kts 12°
2026-05-08 12:30 -20.60915 -44.52106 24864 ft 396 kts 12°
2026-05-08 12:31 -20.58243 -44.51380 24337 ft 396 kts 13°
2026-05-08 12:31 -20.55571 -44.50657 23813 ft 396 kts 13°
2026-05-08 12:31 -20.52896 -44.49931 23245 ft 396 kts 13°
2026-05-08 12:31 -20.50248 -44.49213 22853 ft 390 kts 13°
2026-05-08 12:32 -20.47613 -44.48502 22313 ft 389 kts 13°
2026-05-08 12:32 -20.45013 -44.47800 21963 ft 382 kts 13°
2026-05-08 12:32 -20.42459 -44.47110 21230 ft 375 kts 13°
2026-05-08 12:32 -20.40006 -44.46445 20732 ft 362 kts 13°
2026-05-08 12:33 -20.37610 -44.45792 20287 ft 349 kts 13°
2026-05-08 12:33 -20.35297 -44.45164 19848 ft 338 kts 14°
2026-05-08 12:33 -20.33058 -44.44557 19420 ft 326 kts 14°
2026-05-08 12:33 -20.30879 -44.43966 19019 ft 323 kts 14°
2026-05-08 12:34 -20.28694 -44.43373 18601 ft 324 kts 14°
2026-05-08 12:34 -20.26505 -44.42777 18149 ft 325 kts 14°
2026-05-08 12:34 -20.24318 -44.42180 17734 ft 324 kts 14°
2026-05-08 12:34 -20.22134 -44.41588 17325 ft 323 kts 14°
2026-05-08 12:35 -20.19957 -44.40998 16920 ft 322 kts 14°
2026-05-08 12:35 -20.17788 -44.40408 16525 ft 322 kts 14°
2026-05-08 12:35 -20.15624 -44.39818 16127 ft 321 kts 14°
2026-05-08 12:35 -20.13463 -44.39230 15736 ft 320 kts 14°
2026-05-08 12:36 -20.11308 -44.38646 15345 ft 319 kts 14°
2026-05-08 12:36 -20.09154 -44.38062 14955 ft 319 kts 14°
2026-05-08 12:36 -20.07000 -44.37478 14563 ft 319 kts 14°
2026-05-08 12:36 -20.04851 -44.36896 14171 ft 319 kts 14°
2026-05-08 12:37 -20.02707 -44.36312 13765 ft 318 kts 14°
2026-05-08 12:37 -20.00573 -44.35731 13368 ft 316 kts 14°
2026-05-08 12:37 -19.98451 -44.35155 12989 ft 313 kts 14°
2026-05-08 12:37 -19.96350 -44.34587 12613 ft 310 kts 14°
2026-05-08 12:38 -19.94256 -44.34022 12086 ft 313 kts 14°
2026-05-08 12:38 -19.92139 -44.33451 11697 ft 312 kts 14°
2026-05-08 12:38 -19.90036 -44.32885 11276 ft 311 kts 14°
2026-05-08 12:38 -19.87955 -44.32323 10878 ft 306 kts 14°
2026-05-08 12:39 -19.85949 -44.31782 10709 ft 291 kts 14°
2026-05-08 12:39 -19.84003 -44.31259 10561 ft 286 kts 14°
2026-05-08 12:39 -19.82106 -44.30749 10398 ft 284 kts 14°
2026-05-08 12:39 -19.80194 -44.30232 10251 ft 283 kts 14°
2026-05-08 12:40 -19.78287 -44.29717 10088 ft 282 kts 14°
2026-05-08 12:40 -19.76415 -44.29114 9929 ft 281 kts 23°
2026-05-08 12:40 -19.74706 -44.28117 9772 ft 281 kts 30°
2026-05-08 12:40 -19.73032 -44.27057 9615 ft 280 kts 30°
2026-05-08 12:41 -19.71358 -44.26006 9459 ft 279 kts 30°
2026-05-08 12:41 -19.69686 -44.24961 9303 ft 279 kts 30°
2026-05-08 12:41 -19.68014 -44.23917 9160 ft 278 kts 30°
2026-05-08 12:41 -19.66347 -44.22874 8996 ft 278 kts 30°
2026-05-08 12:42 -19.64677 -44.21846 8808 ft 278 kts 28°
2026-05-08 12:42 -19.62952 -44.20874 8247 ft 282 kts 26°
2026-05-08 12:42 -19.61185 -44.19932 7702 ft 282 kts 25°
2026-05-08 12:42 -19.59491 -44.19044 7513 ft 261 kts 25°
2026-05-08 12:43 -19.57931 -44.18223 7388 ft 239 kts 25°
2026-05-08 12:43 -19.56533 -44.17408 7292 ft 223 kts 35°
2026-05-08 12:43 -19.55419 -44.16280 7072 ft 222 kts 45°
2026-05-08 12:43 -19.54417 -44.15078 6791 ft 212 kts 46°
2026-05-08 12:44 -19.53464 -44.13926 6542 ft 204 kts 46°
2026-05-08 12:44 -19.52535 -44.12802 6295 ft 203 kts 46°
2026-05-08 12:44 -19.51607 -44.11685 6070 ft 201 kts 46°
2026-05-08 12:44 -19.50772 -44.10532 5821 ft 197 kts 63°
2026-05-08 12:45 -19.50652 -44.09116 5615 ft 195 kts 102°
2026-05-08 12:45 -19.51374 -44.07934 5437 ft 193 kts 134°
2026-05-08 12:45 -19.52384 -44.07009 5209 ft 192 kts 134°
2026-05-08 12:45 -19.53378 -44.06102 5064 ft 184 kts 134°
2026-05-08 12:46 -19.54332 -44.05225 4833 ft 179 kts 134°
2026-05-08 12:46 -19.55262 -44.04368 4604 ft 174 kts 134°
2026-05-08 12:46 -19.56158 -44.03541 4379 ft 167 kts 134°
2026-05-08 12:46 -19.57018 -44.02748 4171 ft 160 kts 134°
2026-05-08 12:47 -19.57842 -44.01987 3968 ft 154 kts 135°
2026-05-08 12:47 -19.58647 -44.01243 3781 ft 153 kts 136°
2026-05-08 12:47 -19.59443 -44.00507 3594 ft 151 kts 135°
2026-05-08 12:47 -19.60235 -43.99775 3404 ft 152 kts 136°
2026-05-08 12:48 -19.61031 -43.99040 3210 ft 152 kts 137°
2026-05-08 12:48 -19.61828 -43.98305 3000 ft 151 kts 138°
2026-05-08 12:48 -19.62607 -43.97580 2839 ft 139 kts 138°
2026-05-08 12:48 -19.63220 -43.97014 2837 ft 92 kts 139°
2026-05-08 12:49 -19.63535 -43.96721 2836 ft 27 kts 128°
2026-05-08 12:49 -19.63596 -43.96573 2837 ft 15 kts 111°
2026-05-08 12:49 -19.63625 -43.96488 2840 ft 11 kts 109°
2026-05-08 12:49 -19.63645 -43.96404 2838 ft 12 kts 85°
2026-05-08 12:50 -19.63588 -43.96346 2838 ft 12 kts 26°
2026-05-08 12:50 -19.63508 -43.96299 2839 ft 14 kts 31°
2026-05-08 12:50 -19.63439 -43.96326 2838 ft 13 kts 297°
2026-05-08 12:50 -19.63393 -43.96417 2837 ft 15 kts 300°
2026-05-08 12:51 -19.63316 -43.96498 2837 ft 16 kts 319°
2026-05-08 12:51 -19.63141 -43.96659 2837 ft 17 kts 321°
2026-05-08 12:51 -19.63058 -43.96735 2838 ft 16 kts 319°
2026-05-08 12:52 -19.62988 -43.96800 2840 ft 11 kts 319°
2026-05-08 12:52 -19.62896 -43.96856 2840 ft 7 kts 39°
2026-05-08 12:52 -19.62865 -43.96813 2840 ft 5 kts 49°
2026-05-08 12:53 -19.62856 -43.96803 2840 ft 0 kts 49°